軌道要素
Epoch 2010 July 23.0 TT = JDT 2455400.5
T 2010 Aug. 4.52369 TT MPC
q 5.4466652 (2000.0) P Q
z +0.0159307 Peri. 31.25547 -0.98792990 +0.15174229
+/-0.0000000 Node 157.40985 -0.15350806 -0.93218101
e 0.9132310 Incl. 4.64761 -0.02073141 -0.32865307
From 120 observations 2010 Mar. 20-2011 May 24, mean residual 0".4.
|